This is the latest recevied weather packets stored in our database for station/object NW5W-12. If no packets are shown the sender has not sent any weather packets the latest 10 day(s).
| Time | Temp. | Humidity | Pressure | Rain* | Wind** | Luminosity | Snow |
|---|---|---|---|---|---|---|---|
| 1778098842 | 11.67° C | 28% | 1020.1 hPa | 3.56 mm | - | - | - |
| 1778098542 | 11.11° C | 28% | 1020 hPa | 3.56 mm | - | - | - |
| 1778098242 | 11.11° C | 28% | 1020 hPa | 3.56 mm | - | - | - |
| 1778097942 | 11.11° C | 29% | 1020 hPa | 3.56 mm | - | - | - |
| 1778097642 | 11.11° C | 29% | 1019.9 hPa | 3.56 mm | - | - | - |
| 1778097342 | 11.11° C | 28% | 1019.9 hPa | 3.56 mm | - | - | - |
| 1778097042 | 11.11° C | 28% | 1019.9 hPa | 3.56 mm | - | - | - |
| 1778096742 | 10.56° C | 27% | 1019.9 hPa | 3.56 mm | - | - | - |
| 1778096442 | 10.56° C | 28% | 1019.7 hPa | 3.56 mm | - | - | - |
| 1778096142 | 10.56° C | 28% | 1019.7 hPa | 3.56 mm | - | - | - |
| 1778095842 | 10.56° C | 27% | 1019.7 hPa | 3.56 mm | - | - | - |
| 1778095542 | 10° C | 28% | 1019.8 hPa | 3.56 mm | - | - | - |
| 1778095242 | 10.56° C | 30% | 1019.8 hPa | 3.56 mm | - | - | - |
| 1778094942 | 10° C | 26% | 1019.7 hPa | 3.56 mm | - | - | - |
| 1778094642 | 10° C | 28% | 1019.7 hPa | 3.56 mm | - | - | - |
| 1778094342 | 10° C | 29% | 1019.6 hPa | 3.56 mm | - | - | - |
| 1778094042 | 10° C | 28% | 1019.5 hPa | 3.56 mm | - | - | - |
| 1778093742 | 10° C | 31% | 1019.5 hPa | 3.56 mm | - | - | - |
| 1778093442 | 10° C | 30% | 1019.4 hPa | 3.56 mm | - | - | - |
| 1778093142 | 10° C | 29% | 1019.5 hPa | 3.56 mm | - | - | - |
| 1778092842 | 9.44° C | 30% | 1019.4 hPa | 3.56 mm | - | - | - |
| 1778092542 | 9.44° C | 29% | 1019.4 hPa | 3.56 mm | - | - | - |
| 1778092242 | 9.44° C | 31% | 1019.4 hPa | 3.56 mm | - | - | - |
| 1778091942 | 9.44° C | 34% | 1019.4 hPa | 3.56 mm | - | - | - |
| 1778091643 | 8.89° C | 33% | 1019.4 hPa | 3.56 mm | - | - | - |
* Rain since midnight (hover to see other rain measurements)
** Current wind speed in m/s (hover to see current wind gust speed)